Location: Sihaung
(22.8641°N, 94.0549°E)
Time: 12:47:39
(UTC+00:00)

Cosmos 968 Rocket - Pass Details

Date: 03 March 2021
Orbit: 740 x 771 km, 74.0° (Epoch: 16 April)

Event Time Altitude Azimuth Distance (km) Brightness Sun altitude
Rises 12:55:30 0° 345° (NNW) 3,240 6.9 -16.3°
Reaches altitude 10° 12:57:52 10° 346° (NNW) 2,312 6.2 -16.9°
Maximum altitude 13:03:08 89° 62° (ENE) 774 3.4 -18.1°
Drops below altitude 10° 13:08:23 10° 166° (SSE) 2,299 5.8 -19.3°
Sets 13:10:44 0° 167° (SSE) 3,220 6.6 -19.8°
